Temp
-11 -11 -11 -11 -12 -12 -13 -14 -15 -15 -15 -15 -14 -13 -13 -12 -12 -12 -11 -11 -11 -11 -11 -11 -11 -11 -11 -11 -11 -10 -9 -8 -8 -9 -9 -10 -9 -10 -9 -10 -11 -9 -9 -9 -8
-11 -11 -11 -12 -12 -12 -13 -14 -15 -15 -14 -14 -14 -14 -13 -13 -12 -11 -11 -11 -10 -11 -10 -11 -11 -10 -11 -11 -10 -10 -10 -9 -9 -10 -10 -10 -10 -10 -10 -10 -11 -10 -9 -9 -9
-11 -11 -11 -12 -12 -12 -13 -13 -14 -14 -14 -14 -14 -14 -13 -13 -12 -12 -12 -12 -11 -11 -11 -11 -10 -11 -11 -11 -10 -10 -10 -10 -10 -10 -10 -10 -10 -11 -10 -10 -11 -11 -11 -10 -11
-12 -12 -12 -12 -12 -12 -12 -13 -13 -13 -14 -14 -14 -14 -13 -13 -13 -13 -12 -12 -12 -11 -11 -11 -10 -10 -11 -10 -11 -10 -10 -10 -10 -11 -10 -10 -11 -11 -11 -10 -11 -10 -11 -11 -10
-11 -12 -12 -12 -12 -12 -12 -12 -13 -13 -13 -14 -14 -14 -14 -14 -13 -13 -13 -13 -13 -12 -12 -12 -12 -11 -10 -10 -10 -9 -10 -10 -10 -11 -11 -11 -10 -11 -10 -10 -11 -11 -11 -11 -11
-11 -11 -12 -12 -12 -12 -12 -12 -12 -13 -13 -13 -13 -14 -14 -14 -14 -14 -13 -13 -13 -13 -13 -12 -12 -12 -12 -11 -11 -11 -10 -11 -10 -11 -11 -11 -11 -11 -10 -11 -11 -11 -12 -11 -11
-11 -11 -11 -12 -12 -12 -12 -12 -12 -12 -13 -13 -13 -13 -13 -14 -14 -14 -14 -14 -13 -13 -13 -13 -12 -12 -12 -12 -12 -12 -11 -11 -11 -12 -12 -12 -11 -11 -11 -12 -12 -11 -12 -12 -11
-11 -11 -11 -11 -12 -12 -12 -12 -12 -12 -12 -12 -13 -13 -12 -13 -13 -14 -14 -14 -14 -14 -13 -13 -13 -12 -12 -13 -12 -12 -12 -11 -12 -13 -13 -14 -11 -12 -13 -13 -13 -12 -12 -12 -12
-11 -11 -11 -11 -11 -12 -12 -12 -12 -12 -12 -12 -12 -13 -13 -12 -13 -13 -14 -14 -14 -14 -14 -13 -13 -13 -13 -13 -13 -13 -12 -12 -13 -14 -14 -14 -11 -12 -14 -13 -13 -13 -13 -13 -12
-11 -11 -11 -11 -11 -12 -12 -12 -12 -12 -12 -12 -12 -13 -13 -12 -13 -13 -13 -13 -14 -14 -14 -14 -14 -13 -14 -14 -13 -14 -13 -13 -13 -14 -15 -14 -11 -12 -13 -14 -13 -12 -13 -13 -13
-11 -11 -11 -11 -11 -11 -12 -12 -12 -12 -12 -13 -12 -13 -13 -13 -13 -13 -13 -13 -14 -14 -14 -14 -14 -14 -14 -14 -14 -14 -14 -13 -13 -14 -15 -14 -12 -12 -14 -14 -13 -13 -12 -13 -13
-11 -11 -11 -11 -11 -11 -11 -12 -12 -13 -13 -12 -13 -13 -13 -13 -14 -13 -14 -13 -14 -14 -14 -14 -15 -15 -15 -15 -14 -14 -14 -14 -14 -14 -15 -14 -13 -13 -14 -15 -13 -13 -13 -13 -13
-11 -11 -11 -11 -11 -11 -11 -11 -12 -13 -13 -13 -13 -13 -13 -13 -13 -14 -14 -14 -14 -14 -14 -14 -15 -14 -15 -15 -15 -15 -15 -15 -15 -15 -15 -15 -14 -13 -14 -15 -15 -14 -14 -14 -13
-11 -12 -11 -11 -11 -11 -12 -12 -12 -12 -13 -13 -13 -13 -13 -13 -13 -13 -14 -14 -14 -14 -13 -14 -15 -15 -15 -15 -16 -15 -16 -16 -16 -16 -16 -16 -15 -14 -15 -16 -16 -15 -15 -15 -14
-11 -12 -11 -11 -11 -12 -12 -12 -13 -13 -13 -13 -13 -13 -13 -14 -14 -13 -13 -14 -14 -15 -14 -15 -14 -14 -15 -16 -16 -16 -17 -17 -17 -17 -17 -17 -17 -15 -15 -16 -16 -16 -15 -15 -15
-11 -11 -11 -12 -12 -12 -12 -12 -13 -13 -13 -13 -13 -13 -14 -14 -14 -14 -14 -14 -14 -14 -14 -14 -15 -15 -16 -17 -17 -17 -18 -18 -18 -18 -18 -16 -18 -15 -15 -16 -16 -17 -17 -17 -16
-12 -12 -11 -12 -12 -13 -13 -13 -13 -13 -13 -13 -13 -13 -13 -14 -14 -14 -14 -14 -14 -14 -14 -14 -14 -15 -16 -16 -17 -18 -18 -18 -18 -18 -17 -18 -18 -16 -16 -17 -17 -17 -17 -17 -16
-11 -12 -12 -12 -12 -12 -13 -13 -14 -13 -13 -14 -13 -14 -14 -15 -14 -14 -14 -14 -14 -14 -15 -14 -14 -16 -17 -18 -18 -19 -18 -18 -18 -18 -18 -18 -17 -16 -17 -17 -18 -18 -16 -16 -16
-11 -11 -11 -12 -13 -12 -13 -13 -14 -14 -13 -14 -15 -15 -15 -16 -15 -16 -16 -16 -16 -16 -16 -15 -15 -16 -17 -18 -19 -19 -19 -19 -19 -19 -18 -17 -16 -16 -17 -17 -18 -17 -16 -16 -16
-11 -11 -11 -12 -13 -13 -13 -13 -14 -14 -15 -15 -15 -15 -15 -16 -16 -16 -16 -16 -16 -16 -16 -16 -16 -17 -18 -18 -18 -19 -19 -19 -20 -19 -18 -18 -17 -17 -18 -18 -18 -18 -18 -17 -16
-11 -12 -12 -12 -13 -13 -14 -14 -14 -14 -15 -15 -15 -15 -15 -16 -16 -16 -16 -16 -16 -16 -16 -17 -17 -18 -18 -19 -18 -19 -20 -20 -21 -20 -19 -19 -19 -18 -18 -18 -18 -18 -17 -17 -17
-12 -12 -12 -12 -13 -14 -14 -14 -15 -14 -14 -14 -15 -15 -16 -16 -16 -16 -16 -16 -16 -16 -16 -17 -18 -19 -19 -19 -19 -20 -20 -21 -21 -20 -20 -19 -18 -19 -19 -18 -18 -18 -19 -18 -18
-12 -12 -12 -13 -14 -14 -14 -14 -15 -15 -15 -15 -16 -16 -16 -16 -16 -16 -16 -16 -16 -16 -16 -17 -18 -19 -19 -19 -20 -20 -20 -21 -21 -21 -20 -21 -20 -20 -19 -19 -19 -18 -18 -18 -18
-13 -13 -13 -13 -14 -15 -15 -15 -16 -16 -16 -16 -16 -16 -16 -16 -16 -16 -16 -16 -16 -16 -17 -18 -19 -20 -20 -20 -20 -21 -21 -21 -21 -21 -21 -21 -21 -21 -19 -19 -19 -19 -18 -19 -19
-13 -13 -14 -15 -15 -16 -15 -15 -16 -16 -16 -16 -16 -16 -16 -16 -16 -17 -17 -17 -17 -17 -17 -19 -19 -20 -20 -20 -20 -20 -20 -21 -21 -22 -22 -21 -21 -20 -19 -20 -19 -20 -20 -19 -19
-13 -14 -14 -15 -15 -16 -16 -16 -16 -16 -16 -16 -16 -16 -16 -16 -16 -17 -17 -17 -17 -17 -18 -19 -20 -20 -20 -20 -21 -21 -21 -21 -21 -21 -21 -21 -21 -20 -19 -20 -20 -20 -19 -19 -19
-14 -14 -14 -15 -16 -16 -16 -16 -16 -16 -17 -17 -16 -16 -16 -16 -17 -17 -17 -17 -17 -18 -18 -20 -20 -20 -20 -20 -21 -21 -21 -20 -21 -21 -21 -21 -21 -20 -20 -20 -20 -19 -19 -19 -18
Height
5790 5785 5780 5775 5769 5761 5754 5746 5743 5740 5737 5736 5737 5739 5741 5745 5749 5753 5757 5761 5764 5768 5770 5775 5778 5781 5787 5790 5793 5795 5797 5803 5810 5814 5825 5825 5826 5827 5829 5832 5828 5834 5834 5836 5835
5786 5782 5778 5772 5767 5760 5754 5747 5743 5741 5739 5738 5738 5739 5741 5743 5746 5750 5754 5756 5761 5763 5767 5769 5773 5778 5782 5784 5787 5789 5794 5800 5804 5806 5811 5817 5815 5817 5819 5824 5827 5826 5829 5832 5830
5783 5779 5775 5770 5766 5760 5754 5749 5744 5742 5740 5740 5739 5739 5740 5741 5744 5746 5749 5751 5755 5757 5760 5763 5767 5772 5774 5777 5781 5784 5788 5790 5794 5795 5799 5807 5805 5808 5808 5812 5820 5820 5822 5823 5823
5779 5775 5772 5768 5764 5760 5755 5750 5746 5742 5740 5740 5740 5739 5739 5740 5742 5742 5744 5746 5749 5752 5754 5757 5761 5764 5768 5771 5771 5777 5778 5780 5785 5787 5789 5797 5797 5797 5798 5808 5809 5813 5812 5815 5815
5775 5772 5769 5766 5763 5759 5755 5751 5747 5744 5741 5739 5739 5738 5738 5739 5739 5739 5740 5742 5744 5746 5748 5751 5754 5757 5760 5763 5765 5770 5771 5771 5775 5777 5780 5783 5789 5789 5795 5799 5798 5802 5803 5804 5810
5772 5768 5765 5763 5760 5757 5754 5750 5747 5745 5742 5740 5738 5736 5736 5737 5737 5736 5737 5739 5740 5741 5743 5745 5748 5751 5753 5756 5758 5760 5763 5764 5767 5772 5773 5773 5779 5779 5793 5788 5789 5792 5797 5799 5802
5769 5765 5762 5759 5757 5755 5752 5750 5746 5744 5742 5740 5737 5735 5734 5734 5733 5732 5733 5735 5736 5738 5739 5741 5742 5744 5747 5749 5750 5753 5754 5756 5759 5760 5762 5761 5767 5778 5782 5779 5780 5783 5789 5792 5793
5765 5762 5759 5756 5754 5752 5750 5748 5745 5743 5741 5739 5737 5735 5733 5731 5729 5728 5729 5731 5732 5733 5734 5735 5737 5738 5740 5741 5743 5745 5746 5749 5753 5751 5751 5753 5762 5767 5768 5769 5772 5774 5777 5782 5785
5762 5759 5755 5752 5750 5748 5747 5746 5743 5741 5739 5737 5736 5734 5732 5730 5728 5725 5724 5725 5728 5730 5730 5731 5732 5734 5735 5736 5738 5739 5740 5742 5745 5743 5740 5740 5749 5754 5753 5754 5758 5763 5766 5770 5775
5758 5755 5752 5749 5746 5744 5743 5742 5741 5738 5737 5734 5733 5733 5730 5728 5726 5724 5722 5721 5723 5726 5727 5726 5727 5730 5731 5730 5731 5730 5730 5732 5732 5735 5729 5731 5738 5739 5741 5741 5748 5750 5751 5753 5758
5754 5751 5748 5745 5743 5740 5739 5738 5739 5737 5733 5732 5730 5729 5727 5725 5723 5722 5721 5720 5719 5720 5721 5721 5723 5727 5723 5723 5723 5723 5723 5722 5723 5722 5719 5722 5726 5727 5725 5729 5738 5744 5745 5744 5749
5751 5747 5744 5742 5740 5737 5735 5733 5733 5733 5728 5728 5727 5725 5724 5723 5721 5719 5718 5718 5718 5717 5716 5717 5720 5717 5717 5717 5716 5715 5715 5714 5714 5711 5709 5714 5714 5716 5715 5717 5725 5732 5735 5735 5737
5749 5745 5740 5737 5735 5733 5730 5729 5728 5727 5726 5723 5721 5720 5721 5720 5718 5716 5716 5714 5713 5712 5712 5714 5712 5709 5709 5708 5706 5707 5705 5705 5704 5703 5701 5699 5700 5707 5707 5708 5711 5718 5721 5724 5726
5745 5741 5738 5733 5732 5729 5726 5724 5723 5722 5720 5719 5716 5715 5714 5714 5713 5712 5711 5710 5709 5708 5707 5708 5706 5704 5701 5702 5700 5696 5699 5694 5693 5691 5691 5690 5686 5695 5699 5698 5699 5704 5708 5711 5715
5740 5737 5734 5729 5728 5724 5723 5719 5717 5717 5716 5714 5712 5710 5709 5710 5708 5707 5707 5705 5703 5702 5704 5701 5700 5697 5696 5695 5692 5689 5688 5685 5683 5679 5677 5679 5674 5685 5684 5686 5693 5693 5695 5698 5702
5734 5732 5729 5727 5723 5720 5716 5714 5712 5712 5709 5708 5707 5706 5706 5704 5702 5702 5701 5701 5699 5697 5695 5698 5695 5691 5689 5688 5684 5680 5677 5675 5672 5670 5665 5672 5666 5668 5674 5678 5678 5680 5679 5679 5684
5727 5725 5721 5721 5719 5714 5711 5709 5708 5704 5702 5701 5701 5701 5700 5699 5697 5696 5694 5691 5690 5688 5688 5687 5688 5686 5682 5678 5677 5673 5668 5664 5662 5660 5658 5658 5656 5660 5663 5661 5659 5659 5661 5666 5673
5720 5718 5715 5714 5712 5708 5704 5702 5700 5697 5694 5694 5694 5694 5692 5692 5689 5689 5687 5685 5683 5681 5677 5674 5673 5674 5673 5667 5660 5663 5660 5656 5647 5647 5648 5646 5645 5653 5650 5650 5650 5645 5649 5657 5662
5715 5712 5709 5708 5704 5702 5699 5695 5693 5690 5689 5689 5688 5688 5684 5683 5683 5682 5679 5677 5675 5674 5671 5667 5665 5663 5662 5658 5651 5646 5646 5642 5637 5638 5633 5636 5639 5642 5642 5641 5640 5637 5639 5644 5650
5711 5706 5702 5699 5697 5694 5692 5689 5685 5684 5682 5681 5681 5681 5680 5679 5676 5675 5673 5671 5669 5667 5664 5661 5655 5655 5651 5644 5640 5634 5632 5629 5629 5627 5622 5624 5629 5632 5632 5631 5631 5631 5630 5634 5639
5705 5701 5696 5693 5690 5687 5684 5681 5679 5676 5675 5674 5673 5672 5672 5671 5670 5668 5665 5665 5663 5660 5658 5654 5650 5649 5642 5634 5631 5626 5621 5620 5619 5620 5619 5614 5619 5620 5619 5621 5622 5623 5624 5626 5630
5699 5696 5690 5684 5683 5680 5678 5675 5673 5668 5666 5668 5666 5666 5665 5664 5662 5661 5659 5657 5656 5653 5650 5645 5639 5635 5634 5627 5622 5617 5614 5612 5609 5609 5609 5606 5610 5609 5610 5611 5614 5614 5615 5619 5623
5693 5688 5683 5679 5675 5671 5670 5668 5666 5663 5662 5660 5659 5658 5658 5657 5656 5654 5652 5649 5647 5643 5640 5637 5632 5627 5627 5622 5615 5611 5608 5604 5602 5599 5600 5597 5603 5602 5600 5602 5604 5605 5608 5609 5615
5688 5681 5676 5671 5668 5664 5662 5660 5659 5657 5656 5655 5652 5651 5650 5648 5648 5646 5645 5641 5639 5636 5633 5628 5625 5621 5620 5616 5612 5608 5603 5599 5595 5590 5590 5589 5592 5591 5594 5597 5597 5597 5598 5601 5604
5682 5677 5671 5666 5660 5657 5654 5653 5652 5651 5650 5648 5646 5645 5643 5642 5640 5639 5638 5636 5631 5628 5625 5622 5620 5617 5614 5608 5606 5602 5599 5595 5589 5586 5581 5585 5582 5584 5588 5589 5588 5589 5590 5590 5591
5675 5671 5666 5660 5655 5652 5647 5646 5644 5643 5644 5640 5640 5637 5636 5636 5635 5634 5632 5629 5626 5621 5618 5616 5615 5612 5610 5603 5600 5598 5594 5590 5586 5582 5579 5578 5578 5580 5580 5579 5580 5580 5581 5582 5581
5669 5665 5660 5655 5649 5644 5641 5638 5637 5636 5636 5635 5633 5631 5630 5630 5628 5627 5627 5624 5621 5617 5612 5610 5608 5607 5605 5600 5596 5594 5590 5586 5582 5581 5577 5576 5575 5573 5572 5571 5571 5570 5568 5568 5568
Wind_Speed
21 22 22 22 24 29 30 18 9 9 5 3 8 12 16 20 22 29 36 39 41 40 39 37 36 35 35 36 37 39 44 45 43 41 33 31 40 50 52 51 50 52 58 62 61
21 22 22 22 22 24 27 24 6 7 4 1 5 9 12 15 21 23 28 35 37 40 41 41 40 38 38 38 39 39 41 40 39 39 36 34 42 51 55 55 55 57 55 56 64
21 21 21 21 20 20 23 23 17 6 4 1 1 4 9 13 16 19 23 27 33 38 41 42 42 41 41 41 41 40 41 41 39 39 41 40 44 50 55 58 59 62 59 56 57
21 20 20 20 20 18 17 20 18 14 8 6 5 5 6 9 12 16 20 24 28 32 37 41 43 45 45 44 44 43 43 43 40 41 42 42 44 46 57 55 58 62 64 65 64
22 20 19 19 19 18 15 14 16 14 11 5 11 11 10 10 10 14 18 21 23 26 29 33 38 43 45 46 47 46 47 47 44 43 43 43 46 46 48 52 61 61 64 67 65
21 21 19 17 18 18 15 12 11 12 11 8 6 7 15 16 15 17 16 16 19 22 25 27 30 33 38 41 43 44 45 46 46 42 43 47 46 49 45 52 60 63 63 65 65
21 21 20 18 17 16 16 13 11 9 9 9 7 8 8 12 19 23 22 18 19 20 22 25 27 30 31 32 36 40 44 45 45 45 44 46 47 43 42 54 59 60 64 66 66
22 21 20 19 17 16 15 15 12 10 9 9 8 6 6 7 11 20 25 24 23 21 22 24 26 27 28 30 33 36 41 44 43 44 42 41 46 40 39 44 62 64 61 61 64
23 22 20 19 18 17 15 15 14 12 10 10 10 10 7 4 7 9 21 23 26 25 24 23 23 24 26 28 30 32 35 38 39 40 43 44 50 46 42 46 48 63 67 63 64
24 22 22 20 19 18 17 15 15 15 12 12 11 11 12 9 5 5 10 15 20 26 27 27 27 23 23 26 27 31 35 36 40 37 43 47 52 52 49 47 52 56 66 72 69
22 25 23 21 20 19 19 16 15 15 14 12 14 13 13 14 10 7 7 9 15 21 25 29 29 24 30 32 32 33 35 38 40 42 46 50 54 55 54 50 49 51 57 66 71
25 23 21 21 21 20 20 18 15 15 20 15 17 16 15 13 13 13 11 11 10 14 17 23 24 30 32 35 37 39 40 42 43 44 48 48 52 54 55 52 52 49 51 59 64
28 27 24 23 22 20 20 19 17 17 18 19 19 19 17 16 15 15 16 14 15 15 16 14 18 24 26 32 36 38 42 44 47 46 50 51 53 52 54 53 54 51 50 52 55
26 26 27 28 20 20 21 20 19 18 18 19 20 21 19 17 19 19 19 18 18 19 20 20 21 23 27 29 31 37 36 43 45 49 51 49 55 50 50 53 56 56 53 53 55
29 25 27 25 22 22 22 20 21 20 19 19 20 21 20 21 22 23 21 19 20 21 22 22 25 28 30 29 31 37 33 35 39 45 47 48 52 49 47 47 52 57 57 56 57
27 26 27 26 26 24 23 21 22 20 19 21 22 22 21 21 23 24 24 24 22 22 24 23 28 31 30 30 33 35 38 36 36 40 50 41 48 43 41 42 45 58 57 59 58
32 28 28 26 26 25 24 23 22 22 25 25 21 20 18 22 25 25 25 25 25 28 27 28 27 29 32 35 35 38 42 45 43 41 42 41 44 27 26 32 40 50 66 63 59
29 27 25 23 29 28 26 24 23 26 27 27 26 24 25 24 26 24 26 29 29 31 36 36 38 38 39 43 48 43 46 45 50 49 46 45 46 28 28 30 30 37 54 56 57
29 30 32 31 26 30 27 25 25 29 29 26 25 25 29 29 28 27 29 31 30 32 36 40 42 44 44 45 51 54 52 56 59 45 42 46 38 18 29 36 31 36 33 50 44
30 32 33 30 27 26 27 27 29 27 25 27 26 24 24 26 31 32 32 33 32 34 37 40 45 44 44 44 43 46 43 44 42 43 52 44 41 35 24 25 29 29 35 39 40
31 31 31 31 28 28 25 25 27 27 26 28 29 26 25 27 30 31 32 30 31 34 35 38 40 36 34 37 36 33 30 31 35 32 37 35 26 29 31 34 36 33 41 39 42
32 32 32 33 31 27 27 23 24 28 31 29 29 26 26 26 27 27 28 29 31 32 35 35 36 31 25 29 28 27 25 25 27 36 26 25 24 28 25 29 34 34 34 30 33
33 34 35 34 32 29 27 22 23 25 27 29 29 28 28 26 26 24 24 29 31 33 35 32 30 29 23 27 28 25 22 26 31 34 37 39 24 33 33 21 28 35 40 38 28
33 34 36 35 33 29 28 26 23 25 22 25 27 26 25 24 26 24 24 29 31 31 32 30 25 26 25 25 24 18 21 24 28 33 29 29 26 29 37 38 41 32 37 34 34
35 35 35 36 35 31 29 27 23 23 22 21 24 26 25 23 26 23 25 28 30 31 32 27 23 23 24 30 23 19 19 22 26 26 29 22 23 25 28 31 34 39 31 37 41
37 38 37 36 35 30 27 26 22 22 21 22 22 24 24 23 25 18 24 28 28 31 31 26 21 20 19 25 24 18 20 26 21 20 12 17 16 20 26 29 31 32 37 38 41
35 36 37 36 36 32 28 27 22 20 22 22 21 22 23 25 22 19 22 25 27 28 28 22 18 19 15 21 22 23 24 14 17 14 18 21 22 25 26 28 31 33 36 41 44
Wind_Direction
321 323 323 327 332 338 347 342 327 329 322 243 189 195 200 204 220 225 225 230 234 235 238 237 236 235 233 231 233 235 238 238 241 241 234 223 228 225 231 228 233 237 232 230 235
318 321 324 326 332 339 346 356 313 324 336 334 195 196 196 204 210 220 222 227 228 233 237 238 239 239 239 240 241 240 243 245 241 241 232 217 226 223 227 227 231 241 244 244 236
315 318 323 326 330 338 344 353 358 277 293 287 210 209 215 212 215 220 225 226 227 230 233 238 240 240 243 242 241 242 243 244 242 239 235 219 225 219 227 230 227 233 238 240 242
310 314 319 325 328 334 342 348 359 5 262 259 254 237 228 226 226 225 227 229 230 228 230 232 235 239 239 242 245 245 246 245 241 241 238 228 222 223 225 228 231 233 236 235 241
310 308 313 318 325 328 336 344 349 359 15 298 252 253 247 241 242 235 233 233 235 235 235 234 236 236 238 240 240 244 246 248 246 242 240 236 227 232 229 233 230 232 236 240 241
311 308 306 310 316 323 326 334 338 342 351 358 339 282 255 247 240 243 239 238 240 240 241 241 241 241 243 243 244 244 245 248 251 249 248 244 235 235 235 237 233 233 231 239 242
312 307 306 303 306 313 318 321 324 329 326 327 333 323 317 256 247 241 243 238 240 241 243 243 244 244 245 247 246 247 248 247 249 251 248 250 246 242 236 234 236 236 231 232 238
313 310 305 304 299 302 308 311 312 312 312 310 312 312 331 308 277 253 244 235 239 239 240 244 245 247 247 247 247 245 245 245 246 251 253 252 243 243 241 236 233 236 239 233 236
316 314 309 304 301 295 297 301 303 304 302 299 299 302 305 305 309 285 249 246 236 241 244 244 246 248 249 249 250 252 252 252 248 251 253 252 244 238 235 235 229 234 240 240 238
318 318 312 305 300 297 290 291 292 293 296 292 291 289 296 290 274 294 272 266 247 238 243 250 250 249 254 255 252 251 251 248 248 243 247 248 247 248 242 233 231 229 232 237 239
323 316 313 306 301 297 294 289 289 287 283 283 286 292 282 288 290 283 267 265 260 252 246 249 255 258 253 254 255 254 254 255 253 251 245 250 249 248 250 245 239 236 236 239 239
328 318 314 312 308 298 293 290 289 283 284 279 283 281 273 268 279 285 279 258 245 248 250 254 256 256 258 262 262 261 260 259 258 255 255 251 251 250 251 253 246 239 234 237 239
333 320 312 311 306 302 292 291 293 281 271 275 277 278 268 263 260 271 271 264 269 269 267 265 247 255 256 258 262 265 267 267 266 260 262 258 252 252 253 252 254 247 242 236 238
335 328 318 309 308 305 294 290 287 287 283 277 274 272 261 271 272 266 265 267 271 273 276 274 271 268 268 269 271 269 272 272 272 269 265 258 262 253 254 248 249 252 246 245 241
330 328 323 315 309 305 299 289 282 286 281 272 267 274 266 268 268 267 269 273 274 272 274 273 269 271 270 273 273 277 272 272 269 266 265 260 263 254 251 253 247 253 253 246 241
321 319 318 316 311 305 298 291 283 280 271 266 271 268 267 261 260 269 271 268 266 272 272 265 270 278 285 279 275 278 277 277 274 276 270 264 264 259 257 257 247 239 239 243 247
309 315 313 314 313 307 298 290 280 275 279 277 275 276 266 268 274 272 275 281 282 286 285 285 284 282 288 288 278 280 284 276 264 266 283 274 268 280 259 251 251 244 236 241 249
313 305 307 313 318 309 299 287 278 276 277 283 286 284 276 275 276 281 286 288 289 295 299 300 300 299 300 298 294 285 279 271 268 270 283 269 270 278 267 258 255 263 245 243 247
318 314 306 308 306 310 301 287 274 273 282 282 283 282 280 279 281 284 285 286 289 289 291 293 297 300 302 294 287 285 279 279 280 277 270 261 267 259 268 266 255 261 256 242 242
324 320 315 309 305 304 302 291 281 278 280 281 277 273 274 275 274 276 279 283 284 285 292 296 298 299 295 291 285 285 280 278 275 271 271 258 256 273 251 256 251 252 245 240 239
329 321 315 311 302 299 300 295 290 283 274 272 274 269 265 264 265 270 275 277 279 284 288 291 291 291 293 291 294 295 285 280 280 273 271 263 248 269 266 254 250 252 246 249 237
328 328 324 317 309 301 298 295 286 278 279 278 281 282 276 274 267 267 272 274 280 285 289 293 296 293 299 301 304 307 297 288 267 254 257 267 259 272 267 265 249 245 248 263 263
329 329 323 318 315 305 299 296 289 283 289 286 286 285 284 275 270 270 273 280 289 293 299 303 297 294 303 307 311 310 309 293 275 268 267 266 268 260 248 251 256 251 249 257 236
332 330 326 322 318 312 302 294 287 286 281 285 285 284 280 271 271 271 277 285 292 298 301 301 293 291 305 303 311 305 299 296 286 274 279 272 254 257 258 259 258 265 255 256 258
330 328 325 321 318 318 309 299 289 283 282 283 287 285 279 272 273 273 286 294 298 301 301 302 292 287 300 297 304 316 303 292 292 291 278 264 264 258 262 272 267 264 267 262 259
326 326 324 319 319 317 310 302 291 292 290 284 292 292 285 278 271 272 287 294 298 301 301 302 292 290 296 295 298 300 309 307 294 293 285 276 281 259 268 271 265 261 265 261 258
324 327 327 318 318 320 313 304 291 289 289 282 290 296 286 281 268 276 289 292 297 301 303 299 280 292 292 300 304 303 305 291 303 295 287 275 271 268 269 271 264 259 258 256 259